| time (UTC) | temp C | wind direction | speed KPH | gust KPH | rain 1hr cm | rain 24hr cm | rain mn cm | humidity % | barometer mb |
| 20260506185109 | 10 | 351 | 3.2 | 8.0 | 0.00 | 1.65 | 1.27 | 93 | 1012.2 |
| 20260506184102 | 10 | 342 | 4.8 | 9.7 | 0.00 | 1.65 | 1.27 | 91 | 1012.0 |
| 20260506183107 | 10 | 320 | 3.2 | 9.7 | 0.00 | 1.65 | 1.27 | 90 | 1011.9 |
| 20260506180109 | 10 | 314 | 3.2 | 11.3 | 0.00 | 1.68 | 1.27 | 88 | 1011.5 |
| 20260506175106 | 10 | 311 | 3.2 | 9.7 | 0.00 | 1.68 | 1.27 | 88 | 1011.4 |
| 20260506174106 | 10 | 46 | 3.2 | 9.7 | 0.00 | 1.68 | 1.27 | 87 | 1011.3 |
| 20260506173103 | 10 | 316 | 4.8 | 11.3 | 0.00 | 1.68 | 1.27 | 87 | 1011.1 |
| 20260506172106 | 10 | 316 | 4.8 | 14.5 | 0.00 | 1.68 | 1.27 | 85 | 1011.0 |
| 20260506171105 | 11 | 302 | 6.4 | 14.5 | 0.00 | 1.68 | 1.27 | 83 | 1011.0 |
| 20260506170100 | 11 | 355 | 4.8 | 14.5 | 0.00 | 1.68 | 1.27 | 82 | 1010.9 |
| 20260506165100 | 11 | 321 | 8.0 | 17.7 | 0.00 | 1.68 | 1.27 | 83 | 1010.8 |
| 20260506164103 | 11 | 355 | 4.8 | 14.5 | 0.00 | 1.68 | 1.27 | 81 | 1010.8 |
| 20260506163101 | 11 | 296 | 4.8 | 12.9 | 0.00 | 1.68 | 1.27 | 85 | 1010.8 |
| 20260506162106 | 11 | 290 | 3.2 | 8.0 | 0.00 | 1.68 | 1.27 | 85 | 1010.8 |
| 20260506161104 | 10 | 293 | 1.6 | 8.0 | 0.00 | 1.68 | 1.27 | 92 | 1010.8 |
| 20260506155103 | 10 | 253 | 1.6 | 4.8 | 0.00 | 1.68 | 1.27 | 95 | 1010.9 |
| 20260506154107 | 10 | 299 | 1.6 | 4.8 | 0.00 | 1.68 | 1.27 | 93 | 1010.9 |
| 20260506153101 | 10 | 331 | 1.6 | 6.4 | 0.00 | 1.68 | 1.27 | 93 | 1010.9 |
| 20260506152101 | 10 | 36 | 1.6 | 6.4 | 0.00 | 1.68 | 1.27 | 91 | 1010.8 |
| 20260506151104 | 11 | 340 | 3.2 | 6.4 | 0.00 | 1.68 | 1.27 | 90 | 1010.8 |
| 20260506150100 | 11 | 356 | 3.2 | 8.0 | 0.00 | 1.68 | 1.27 | 90 | 1010.8 |
| 20260506144059 | 11 | 3 | 3.2 | 8.0 | 0.00 | 1.68 | 1.27 | 88 | 1010.7 |
| 20260506143059 | 11 | 291 | 4.8 | 9.7 | 0.00 | 1.68 | 1.27 | 88 | 1010.6 |
| 20260506142058 | 11 | 322 | 4.8 | 9.7 | 0.00 | 1.68 | 1.27 | 86 | 1010.7 |
| 20260506141059 | 11 | 314 | 3.2 | 9.7 | 0.00 | 1.68 | 1.27 | 87 | 1010.7 |
| 20260506140106 | 11 | 282 | 4.8 | 11.3 | 0.00 | 1.68 | 1.27 | 92 | 1010.7 |
| 20260506135100 | 11 | 285 | 3.2 | 8.0 | 0.00 | 1.68 | 1.27 | 93 | 1010.7 |
| 20260506134100 | 11 | 290 | 4.8 | 11.3 | 0.00 | 1.68 | 1.27 | 93 | 1010.8 |
| 20260506133059 | 11 | 294 | 4.8 | 9.7 | 0.00 | 1.68 | 1.27 | 91 | 1010.8 |
| 20260506132059 | 10 | 298 | 4.8 | 9.7 | 0.00 | 1.68 | 1.27 | 92 | 1010.8 |
| 20260506131059 | 10 | 314 | 4.8 | 11.3 | 0.00 | 1.68 | 1.27 | 92 | 1010.7 |
| 20260506130059 | 10 | 313 | 4.8 | 11.3 | 0.00 | 1.68 | 1.27 | 92 | 1010.7 |
| 20260506125059 | 11 | 303 | 4.8 | 12.9 | 0.00 | 1.68 | 1.27 | 93 | 1010.6 |
| 20260506122058 | 11 | 306 | 4.8 | 12.9 | 0.00 | 1.68 | 1.27 | 91 | 1010.4 |
| 20260506121056 | 11 | 335 | 4.8 | 12.9 | 0.00 | 1.68 | 1.27 | 91 | 1010.3 |
| 20260506115058 | 10 | 319 | 6.4 | 14.5 | 0.00 | 1.68 | 1.27 | 94 | 1010.3 |
| 20260506114100 | 10 | 331 | 6.4 | 17.7 | 0.00 | 1.68 | 1.27 | 95 | 1010.4 |
| 20260506113100 | 10 | 324 | 6.4 | 16.1 | 0.00 | 1.68 | 1.27 | 95 | 1010.4 |
| 20260506112100 | 10 | 316 | 6.4 | 12.9 | 0.00 | 1.68 | 1.27 | 95 | 1010.4 |
| 20260506111100 | 10 | 336 | 8.0 | 16.1 | 0.00 | 1.68 | 1.27 | 97 | 1010.4 |
| 20260506110058 | 10 | 337 | 6.4 | 14.5 | 0.00 | 1.68 | 1.27 | 98 | 1010.5 |
| 20260506105058 | 10 | 226 | 8.0 | 16.1 | 0.00 | 1.68 | 1.27 | 99 | 1010.5 |
| 20260506104100 | 9 | 331 | 6.4 | 16.1 | 0.00 | 1.68 | 1.27 | 99 | 1010.6 |
| 20260506103059 | 9 | 355 | 4.8 | 12.9 | 0.00 | 1.68 | 1.27 | 10 | 1010.6 |
| 20260506102100 | 9 | 342 | 8.0 | 20.9 | 0.00 | 1.68 | 1.27 | 10 | 1010.5 |
| 20260506101058 | 8 | 351 | 8.0 | 17.7 | 0.00 | 1.68 | 1.27 | 10 | 1010.5 |
| 20260506100057 | 8 | 352 | 8.0 | 17.7 | 0.00 | 1.68 | 1.27 | 10 | 1010.4 |
| 20260506095058 | 8 | 344 | 6.4 | 14.5 | 0.03 | 1.68 | 1.27 | 10 | 1010.4 |
| 20260506094059 | 8 | 53 | 8.0 | 16.1 | 0.03 | 1.68 | 1.27 | 10 | 1010.3 |
| 20260506093058 | 8 | 75 | 6.4 | 14.5 | 0.03 | 1.68 | 1.27 | 10 | 1010.2 |
| 20260506091057 | 8 | 228 | 8.0 | 16.1 | 0.05 | 1.68 | 1.27 | 10 | 1010.1 |
| 20260506090100 | 8 | 330 | 6.4 | 12.9 | 0.05 | 1.68 | 1.27 | 10 | 1010.0 |
| 20260506085059 | 8 | 329 | 6.4 | 16.1 | 0.05 | 1.68 | 1.27 | 10 | 1009.9 |
| 20260506084056 | 8 | 332 | 8.0 | 16.1 | 0.05 | 1.65 | 1.24 | 10 | 1009.8 |
| 20260506083056 | 8 | 330 | 8.0 | 17.7 | 0.05 | 1.68 | 1.24 | 10 | 1009.7 |
| 20260506082056 | 8 | 335 | 8.0 | 16.1 | 0.08 | 1.68 | 1.24 | 10 | 1009.7 |
| 20260506081057 | 7 | 346 | 8.0 | 16.1 | 0.05 | 1.65 | 1.22 | 10 | 1009.6 |
| 20260506073056 | 7 | 330 | 8.0 | 17.7 | 0.13 | 1.65 | 1.19 | 10 | 1009.4 |
| 20260506072054 | 7 | 327 | 6.4 | 19.3 | 0.13 | 1.63 | 1.17 | 10 | 1009.3 |
| 20260506071057 | 7 | 327 | 6.4 | 14.5 | 0.10 | 1.60 | 1.17 | 10 | 1009.3 |
| 20260506061054 | 7 | 325 | 6.4 | 14.5 | 0.18 | 1.50 | 1.07 | 10 | 1009.1 |
| 20260506051055 | 7 | 322 | 6.4 | 14.5 | 0.18 | 1.35 | 0.89 | 10 | 1009.2 |
| 20260506045053 | 7 | 336 | 8.0 | 16.1 | 0.18 | 1.27 | 0.84 | 10 | 1009.1 |
| 20260506044055 | 7 | 341 | 6.4 | 16.1 | 0.15 | 1.24 | 0.79 | 10 | 1009.0 |
| 20260506043058 | 7 | 333 | 8.0 | 16.1 | 0.15 | 1.22 | 0.79 | 10 | 1009.0 |
| 20260506042053 | 7 | 67 | 8.0 | 17.7 | 0.15 | 1.19 | 0.76 | 10 | 1009.0 |
| 20260506041055 | 7 | 335 | 8.0 | 14.5 | 0.15 | 1.17 | 0.74 | 10 | 1008.9 |
| 20260506040055 | 7 | 337 | 8.0 | 16.1 | 0.15 | 1.17 | 0.71 | 10 | 1008.9 |
| 20260506035058 | 7 | 335 | 8.0 | 17.7 | 0.13 | 1.12 | 0.69 | 10 | 1008.9 |
| 20260506034058 | 7 | 334 | 6.4 | 16.1 | 0.13 | 1.09 | 0.66 | 10 | 1009.0 |
| 20260506032055 | 7 | 339 | 6.4 | 12.9 | 0.13 | 1.07 | 0.61 | 10 | 1009.0 |
| 20260506031055 | 7 | 346 | 8.0 | 16.1 | 0.10 | 1.04 | 0.61 | 10 | 1009.0 |
| 20260506025055 | 7 | 341 | 8.0 | 16.1 | 0.13 | 1.02 | 0.58 | 10 | 1009.1 |
| 20260506024054 | 7 | 341 | 8.0 | 17.7 | 0.13 | 0.99 | 0.56 | 10 | 1009.2 |
| 20260506023058 | 7 | 349 | 8.0 | 16.1 | 0.13 | 0.99 | 0.53 | 10 | 1009.2 |
| 20260506022055 | 7 | 347 | 8.0 | 14.5 | 0.13 | 0.97 | 0.51 | 10 | 1009.2 |
| 20260506021056 | 7 | 348 | 8.0 | 16.1 | 0.15 | 0.94 | 0.51 | 10 | 1009.2 |
| 20260506020057 | 7 | 105 | 8.0 | 19.3 | 0.15 | 0.94 | 0.51 | 10 | 1009.2 |
| 20260506015056 | 7 | 19 | 9.7 | 19.3 | 0.15 | 0.91 | 0.48 | 10 | 1009.2 |
| 20260506014056 | 7 | 354 | 9.7 | 17.7 | 0.18 | 0.89 | 0.46 | 10 | 1009.2 |
| 20260506013055 | 7 | 355 | 9.7 | 17.7 | 0.15 | 0.89 | 0.43 | 10 | 1009.2 |
| 20260506012055 | 8 | 349 | 8.0 | 16.1 | 0.15 | 0.86 | 0.43 | 10 | 1009.2 |
| 20260506011055 | 8 | 351 | 8.0 | 17.7 | 0.15 | 0.84 | 0.41 | 10 | 1009.2 |
| 20260506010051 | 8 | 21 | 8.0 | 17.7 | 0.15 | 0.79 | 0.36 | 10 | 1009.2 |
| 20260506005055 | 8 | 351 | 8.0 | 19.3 | 0.15 | 0.79 | 0.33 | 10 | 1009.3 |
| 20260506004057 | 8 | 46 | 6.4 | 14.5 | 0.15 | 0.76 | 0.33 | 10 | 1009.3 |
| 20260506002057 | 8 | 1 | 8.0 | 16.1 | 0.13 | 0.74 | 0.28 | 10 | 1009.4 |
| 20260506001055 | 8 | 7 | 9.7 | 17.7 | 0.13 | 0.71 | 0.25 | 10 | 1009.4 |
| 20260505232108 | 8 | 11 | 9.7 | 20.9 | 0.10 | 0.61 | 0.15 | 10 | 1009.7 |
| 20260505231105 | 8 | 8 | 9.7 | 20.9 | 0.15 | 0.61 | 0.15 | 10 | 1009.8 |
| 20260505230107 | 8 | 15 | 8.0 | 17.7 | 0.15 | 0.61 | 0.15 | 10 | 1009.8 |
| 20260505224103 | 8 | 22 | 11.3 | 20.9 | 0.18 | 0.58 | 0.13 | 10 | 1009.9 |
| 20260505223106 | 8 | 19 | 8.0 | 20.9 | 0.18 | 0.56 | 0.10 | 10 | 1009.8 |
| 20260505222107 | 8 | 20 | 8.0 | 17.7 | 0.18 | 0.53 | 0.08 | 10 | 1009.8 |
| 20260505220104 | 8 | 17 | 8.0 | 17.7 | 0.18 | 0.48 | 0.03 | 10 | 1009.9 |
| 20260505215115 | 8 | 15 | 9.7 | 20.9 | 0.23 | 0.46 | 0.46 | 10 | 1009.9 |
| 20260505214114 | 8 | 10 | 8.0 | 12.9 | 0.18 | 0.43 | 0.43 | 10 | 1010.0 |
| 20260505213113 | 8 | 11 | 9.7 | 19.3 | 0.18 | 0.41 | 0.41 | 10 | 1010.0 |
| 20260505212113 | 8 | 14 | 11.3 | 22.5 | 0.15 | 0.38 | 0.38 | 10 | 1010.1 |
| 20260505211111 | 8 | 17 | 12.9 | 22.5 | 0.20 | 0.36 | 0.36 | 10 | 1010.1 |
| 20260505203113 | 9 | 2 | 9.7 | 17.7 | 0.08 | 0.23 | 0.23 | 10 | 1010.1 |
| 20260505193112 | 9 | 6 | 9.7 | 17.7 | 0.10 | 0.15 | 0.15 | 10 | 1009.7 |
| 20260505192107 | 10 | 5 | 8.0 | 16.1 | 0.10 | 0.15 | 0.15 | 10 | 1009.7 |
| 20260505191111 | 10 | 7 | 9.7 | 17.7 | 0.08 | 0.15 | 0.15 | 10 | 1009.7 |